| time (UTC) | temp F | wind direction | speed knots | gust knots | rain 1hr in | rain 24hr in | rain mn in | humidity % | barometer mb |
| 20260506004317 | 69 | 317 | 0.9 | 4.3 | 0.00 | 0.28 | 0.00 | 39 | 1012.7 |
| 20260506003831 | 69 | 317 | 1.7 | 3.5 | 0.00 | 0.28 | 0.00 | 40 | 1012.6 |
| 20260506003320 | 68 | 317 | 2.6 | 5.2 | 0.00 | 0.28 | 0.00 | 38 | 1012.6 |
| 20260506002850 | 68 | 318 | 2.6 | 5.2 | 0.00 | 0.28 | 0.00 | 39 | 1012.7 |
| 20260506002318 | 69 | 317 | 1.7 | 4.3 | 0.00 | 0.28 | 0.00 | 41 | 1012.7 |
| 20260506001828 | 69 | 318 | 2.6 | 4.3 | 0.00 | 0.28 | 0.00 | 40 | 1012.6 |
| 20260506001320 | 70 | 318 | 1.7 | 5.2 | 0.00 | 0.28 | 0.00 | 38 | 1012.6 |
| 20260506000831 | 69 | 318 | 1.7 | 7.0 | 0.00 | 0.28 | 0.00 | 39 | 1012.7 |
| 20260506000323 | 69 | 320 | 2.6 | 7.8 | 0.00 | 0.28 | 0.00 | 40 | 1012.6 |
| 20260505235835 | 70 | 321 | 5.2 | 7.8 | 0.00 | 0.28 | 0.00 | 39 | 1012.7 |
| 20260505235345 | 69 | 321 | 2.6 | 5.2 | 0.00 | 0.28 | 0.00 | 41 | 1012.6 |
| 20260505234814 | 69 | 321 | 1.7 | 7.8 | 0.00 | 0.28 | 0.00 | 39 | 1012.6 |
| 20260505234329 | 69 | 321 | 2.6 | 7.8 | 0.00 | 0.28 | 0.00 | 39 | 1012.7 |
| 20260505233821 | 69 | 318 | 2.6 | 5.2 | 0.00 | 0.28 | 0.00 | 43 | 1012.7 |
| 20260505233355 | 69 | 318 | 1.7 | 5.2 | 0.00 | 0.28 | 0.00 | 41 | 1012.7 |
| 20260505232824 | 69 | 319 | 2.6 | 5.2 | 0.00 | 0.28 | 0.00 | 41 | 1012.7 |
| 20260505232331 | 69 | 319 | 2.6 | 5.2 | 0.00 | 0.28 | 0.00 | 39 | 1012.8 |
| 20260505231821 | 69 | 319 | 2.6 | 5.2 | 0.00 | 0.28 | 0.00 | 42 | 1012.8 |
| 20260505231331 | 69 | 319 | 1.7 | 7.0 | 0.00 | 0.29 | 0.00 | 41 | 1012.8 |
| 20260505230841 | 68 | 319 | 2.6 | 7.0 | 0.00 | 0.29 | 0.00 | 42 | 1012.9 |
| 20260505230330 | 68 | 331 | 2.6 | 9.6 | 0.00 | 0.29 | 0.00 | 44 | 1012.8 |
| 20260505225820 | 68 | 322 | 3.5 | 5.2 | 0.00 | 0.29 | 0.00 | 44 | 1012.9 |
| 20260505225330 | 68 | 325 | 0.9 | 7.0 | 0.00 | 0.29 | 0.00 | 45 | 1012.8 |
| 20260505224819 | 67 | 325 | 3.5 | 7.0 | 0.00 | 0.29 | 0.00 | 43 | 1013.0 |
| 20260505224331 | 67 | 321 | 2.6 | 7.0 | 0.00 | 0.29 | 0.00 | 45 | 1013.0 |
| 20260505223841 | 67 | 326 | 2.6 | 7.8 | 0.00 | 0.29 | 0.00 | 46 | 1012.9 |
| 20260505223334 | 67 | 335 | 3.5 | 7.8 | 0.00 | 0.29 | 0.00 | 43 | 1013.1 |
| 20260505222843 | 67 | 325 | 0.9 | 8.7 | 0.00 | 0.29 | 0.00 | 42 | 1013.1 |
| 20260505222332 | 67 | 325 | 4.3 | 8.7 | 0.00 | 0.29 | 0.00 | 42 | 1013.2 |
| 20260505221823 | 67 | 315 | 1.7 | 7.8 | 0.00 | 0.29 | 0.00 | 45 | 1013.2 |
| 20260505221329 | 67 | 315 | 1.7 | 7.8 | 0.00 | 0.29 | 0.00 | 44 | 1013.3 |
| 20260505220820 | 67 | 315 | 2.6 | 7.8 | 0.00 | 0.29 | 0.00 | 43 | 1013.4 |
| 20260505220331 | 66 | 310 | 1.7 | 4.3 | 0.00 | 0.29 | 0.00 | 44 | 1013.4 |
| 20260505215822 | 66 | 310 | 0.9 | 7.8 | 0.00 | 0.29 | 0.00 | 44 | 1013.4 |
| 20260505215332 | 65 | 310 | 3.5 | 7.8 | 0.00 | 0.29 | 0.00 | 50 | 1013.5 |
| 20260505214820 | 65 | 309 | 2.6 | 7.8 | 0.00 | 0.29 | 0.00 | 47 | 1013.5 |
| 20260505214331 | 65 | 309 | 3.5 | 7.8 | 0.00 | 0.29 | 0.00 | 47 | 1013.6 |
| 20260505213820 | 65 | 306 | 2.6 | 5.2 | 0.00 | 0.29 | 0.00 | 49 | 1013.7 |
| 20260505213324 | 64 | 306 | 0.9 | 9.6 | 0.00 | 0.29 | 0.00 | 52 | 1013.7 |
| 20260505212836 | 64 | 304 | 4.3 | 9.6 | 0.00 | 0.29 | 0.00 | 53 | 1013.8 |
| 20260505212323 | 64 | 263 | 2.6 | 7.0 | 0.00 | 0.29 | 0.00 | 51 | 1013.8 |
| 20260505211835 | 64 | 263 | 2.6 | 9.6 | 0.00 | 0.29 | 0.00 | 52 | 1013.8 |
| 20260505211325 | 64 | 263 | 6.1 | 9.6 | 0.00 | 0.34 | 0.00 | 55 | 1013.7 |
| 20260505210815 | 63 | 307 | 1.7 | 4.3 | 0.00 | 0.34 | 0.00 | 55 | 1013.9 |
| 20260505210330 | 63 | 307 | 2.6 | 4.3 | 0.00 | 0.34 | 0.00 | 58 | 1013.9 |
| 20260505205842 | 62 | 307 | 0.0 | 3.5 | 0.00 | 0.34 | 0.00 | 56 | 1013.9 |
| 20260505205328 | 62 | 307 | 1.7 | 3.5 | 0.00 | 0.34 | 0.00 | 56 | 1014.0 |
| 20260505204840 | 62 | 307 | 1.7 | 3.5 | 0.00 | 0.34 | 0.00 | 55 | 1014.0 |
| 20260505204324 | 62 | 307 | 0.0 | 3.5 | 0.00 | 0.34 | 0.00 | 58 | 1014.0 |
| 20260505203833 | 62 | 307 | 0.9 | 4.3 | 0.00 | 0.34 | 0.00 | 57 | 1014.1 |
| 20260505203323 | 62 | 307 | 2.6 | 4.3 | 0.00 | 0.34 | 0.00 | 55 | 1014.1 |
| 20260505202832 | 63 | 307 | 1.7 | 5.2 | 0.00 | 0.34 | 0.00 | 56 | 1014.1 |
| 20260505202340 | 62 | 307 | 2.6 | 5.2 | 0.00 | 0.34 | 0.00 | 58 | 1014.0 |
| 20260505201824 | 62 | 307 | 2.6 | 7.8 | 0.00 | 0.34 | 0.00 | 59 | 1014.1 |
| 20260505201313 | 61 | 307 | 2.6 | 7.8 | 0.00 | 0.39 | 0.00 | 59 | 1014.1 |
| 20260505200852 | 62 | 304 | 2.6 | 7.8 | 0.00 | 0.39 | 0.00 | 56 | 1014.1 |
| 20260505200343 | 62 | 302 | 3.5 | 5.2 | 0.00 | 0.39 | 0.00 | 59 | 1014.1 |
| 20260505195831 | 62 | 301 | 2.6 | 5.2 | 0.00 | 0.39 | 0.00 | 59 | 1014.1 |
| 20260505195323 | 61 | 301 | 1.7 | 7.0 | 0.00 | 0.39 | 0.00 | 58 | 1014.2 |
| 20260505194832 | 61 | 300 | 1.7 | 7.0 | 0.00 | 0.39 | 0.00 | 60 | 1014.3 |
| 20260505194321 | 60 | 294 | 0.9 | 4.3 | 0.00 | 0.39 | 0.00 | 64 | 1014.3 |
| 20260505193832 | 59 | 294 | 0.0 | 7.8 | 0.00 | 0.39 | 0.00 | 65 | 1014.4 |
| 20260505193320 | 58 | 294 | 4.3 | 7.8 | 0.00 | 0.39 | 0.00 | 66 | 1014.4 |
| 20260505192829 | 57 | 292 | 1.7 | 3.5 | 0.00 | 0.39 | 0.00 | 65 | 1014.3 |
| 20260505192319 | 57 | 292 | 1.7 | 3.5 | 0.00 | 0.39 | 0.00 | 66 | 1014.4 |
| 20260505191824 | 57 | 292 | 0.9 | 4.3 | 0.00 | 0.39 | 0.00 | 67 | 1014.3 |
| 20260505191316 | 57 | 292 | 2.6 | 4.3 | 0.00 | 0.39 | 0.00 | 66 | 1014.3 |
| 20260505190826 | 57 | 292 | 1.7 | 3.5 | 0.00 | 0.39 | 0.00 | 68 | 1014.3 |
| 20260505190316 | 57 | 292 | 2.6 | 4.3 | 0.00 | 0.39 | 0.00 | 68 | 1014.4 |
| 20260505185822 | 56 | 292 | 2.6 | 6.1 | 0.00 | 0.39 | 0.00 | 67 | 1014.3 |
| 20260505185332 | 56 | 292 | 2.6 | 6.1 | 0.00 | 0.39 | 0.00 | 71 | 1014.4 |
| 20260505184821 | 56 | 292 | 1.7 | 3.5 | 0.00 | 0.39 | 0.00 | 70 | 1014.4 |
| 20260505184347 | 55 | 292 | 0.9 | 3.5 | 0.00 | 0.39 | 0.00 | 69 | 1014.3 |
| 20260505183818 | 55 | 292 | 1.7 | 4.3 | 0.00 | 0.39 | 0.00 | 70 | 1014.3 |
| 20260505183331 | 55 | 292 | 2.6 | 4.3 | 0.00 | 0.39 | 0.00 | 70 | 1014.3 |
| 20260505182821 | 55 | 292 | 0.9 | 3.5 | 0.00 | 0.39 | 0.00 | 70 | 1014.5 |
| 20260505182332 | 55 | 292 | 0.9 | 3.5 | 0.00 | 0.39 | 0.00 | 71 | 1014.3 |
| 20260505181842 | 54 | 292 | 0.9 | 2.6 | 0.00 | 0.39 | 0.00 | 73 | 1014.3 |
| 20260505181331 | 54 | 292 | 0.9 | 2.6 | 0.00 | 0.39 | 0.00 | 73 | 1014.4 |
| 20260505180842 | 54 | 292 | 1.7 | 3.5 | 0.00 | 0.39 | 0.00 | 73 | 1014.3 |
| 20260505180350 | 53 | 292 | 1.7 | 4.3 | 0.00 | 0.39 | 0.00 | 72 | 1014.3 |
| 20260505175836 | 54 | 292 | 2.6 | 4.3 | 0.00 | 0.39 | 0.00 | 72 | 1014.3 |
| 20260505175323 | 54 | 292 | 1.7 | 4.3 | 0.00 | 0.39 | 0.00 | 74 | 1014.2 |
| 20260505174813 | 54 | 292 | 2.6 | 6.1 | 0.00 | 0.39 | 0.00 | 72 | 1014.3 |
| 20260505174324 | 54 | 292 | 1.7 | 6.1 | 0.00 | 0.39 | 0.00 | 72 | 1014.1 |
| 20260505173815 | 54 | 292 | 2.6 | 3.5 | 0.00 | 0.39 | 0.00 | 73 | 1014.1 |
| 20260505173324 | 54 | 292 | 1.7 | 6.1 | 0.00 | 0.39 | 0.00 | 74 | 1014.0 |
| 20260505172833 | 53 | 292 | 1.7 | 6.1 | 0.00 | 0.39 | 0.00 | 75 | 1013.8 |
| 20260505172340 | 53 | 292 | 0.9 | 6.1 | 0.00 | 0.39 | 0.00 | 75 | 1013.9 |
| 20260505171828 | 52 | 292 | 2.6 | 7.0 | 0.00 | 0.39 | 0.00 | 75 | 1013.9 |
| 20260505171319 | 52 | 292 | 4.3 | 7.0 | 0.00 | 0.39 | 0.00 | 77 | 1013.8 |
| 20260505170830 | 52 | 290 | 1.7 | 7.0 | 0.00 | 0.39 | 0.00 | 77 | 1013.9 |
| 20260505170321 | 51 | 291 | 2.6 | 6.1 | 0.00 | 0.39 | 0.00 | 78 | 1013.8 |
| 20260505165832 | 51 | 291 | 2.6 | 7.8 | 0.00 | 0.39 | 0.00 | 78 | 1013.8 |
| 20260505165323 | 51 | 290 | 3.5 | 7.8 | 0.00 | 0.39 | 0.00 | 79 | 1013.9 |
| 20260505164812 | 51 | 290 | 3.5 | 6.1 | 0.00 | 0.39 | 0.00 | 79 | 1013.8 |
| 20260505164327 | 51 | 290 | 2.6 | 7.0 | 0.00 | 0.39 | 0.00 | 80 | 1013.8 |
| 20260505163832 | 50 | 290 | 1.7 | 6.1 | 0.00 | 0.39 | 0.00 | 81 | 1013.7 |
| 20260505163322 | 50 | 290 | 2.6 | 4.3 | 0.00 | 0.39 | 0.00 | 80 | 1013.7 |
| 20260505162814 | 50 | 290 | 1.7 | 3.5 | 0.00 | 0.39 | 0.00 | 81 | 1013.8 |
| 20260505162343 | 50 | 290 | 2.6 | 3.5 | 0.00 | 0.39 | 0.00 | 81 | 1013.6 |
| 20260505161853 | 49 | 290 | 1.7 | 3.5 | 0.00 | 0.39 | 0.00 | 82 | 1013.6 |
| 20260505161320 | 49 | 290 | 0.9 | 2.6 | 0.00 | 0.39 | 0.00 | 82 | 1013.7 |
| 20260505160826 | 49 | 290 | 1.7 | 4.3 | 0.00 | 0.39 | 0.00 | 83 | 1013.6 |
| 20260505160336 | 48 | 290 | 0.9 | 6.1 | 0.00 | 0.39 | 0.00 | 84 | 1013.6 |
| 20260505153323 | 47 | 290 | 3.5 | 7.0 | 0.00 | 0.39 | 0.00 | 85 | 1013.2 |
| 20260505152832 | 47 | 290 | 2.6 | 6.1 | 0.00 | 0.39 | 0.00 | 86 | 1013.1 |
| 20260505152337 | 47 | 290 | 1.7 | 6.1 | 0.00 | 0.39 | 0.00 | 87 | 1013.1 |
| 20260505151827 | 46 | 289 | 3.5 | 7.0 | 0.00 | 0.39 | 0.00 | 86 | 1013.1 |
| 20260505151317 | 46 | 289 | 3.5 | 6.1 | 0.00 | 0.39 | 0.00 | 86 | 1013.0 |
| 20260505150843 | 46 | 290 | 3.5 | 6.1 | 0.00 | 0.39 | 0.00 | 87 | 1013.1 |
| 20260505150332 | 46 | 290 | 2.6 | 6.1 | 0.00 | 0.39 | 0.00 | 87 | 1013.0 |
| 20260505140356 | 45 | 290 | 2.6 | 4.3 | 0.00 | 0.39 | 0.00 | 88 | 1012.4 |
| 20260505124823 | 44 | 290 | 1.7 | 6.1 | 0.00 | 0.39 | 0.00 | 88 | 1011.7 |
| 20260505124333 | 44 | 290 | 1.7 | 6.1 | 0.00 | 0.39 | 0.00 | 88 | 1011.7 |
| 20260505123825 | 44 | 290 | 2.6 | 6.1 | 0.00 | 0.39 | 0.00 | 88 | 1011.7 |
| 20260505123334 | 44 | 290 | 2.6 | 6.1 | 0.00 | 0.39 | 0.00 | 88 | 1011.6 |
| 20260505122821 | 44 | 290 | 1.7 | 7.8 | 0.00 | 0.39 | 0.00 | 88 | 1011.6 |
| 20260505122330 | 44 | 290 | 1.7 | 7.8 | 0.00 | 0.39 | 0.00 | 88 | 1011.6 |
| 20260505121839 | 44 | 290 | 2.6 | 7.8 | 0.00 | 0.39 | 0.00 | 88 | 1011.6 |
| 20260505121329 | 44 | 290 | 2.6 | 7.8 | 0.00 | 0.39 | 0.00 | 88 | 1011.7 |
| 20260505120819 | 44 | 290 | 1.7 | 4.3 | 0.00 | 0.39 | 0.00 | 89 | 1011.7 |
| 20260505120348 | 43 | 290 | 1.7 | 6.1 | 0.00 | 0.39 | 0.00 | 88 | 1011.6 |
| 20260505115839 | 43 | 290 | 2.6 | 6.1 | 0.00 | 0.39 | 0.00 | 88 | 1011.6 |
| 20260505115330 | 43 | 290 | 2.6 | 6.1 | 0.00 | 0.39 | 0.00 | 88 | 1011.5 |
| 20260505114820 | 43 | 290 | 1.7 | 4.3 | 0.00 | 0.39 | 0.00 | 88 | 1011.4 |
| 20260505114334 | 43 | 290 | 1.7 | 4.3 | 0.00 | 0.39 | 0.00 | 88 | 1011.6 |
| 20260505113844 | 43 | 290 | 1.7 | 4.3 | 0.00 | 0.39 | 0.00 | 88 | 1011.5 |
| 20260505113330 | 43 | 290 | 2.6 | 4.3 | 0.00 | 0.39 | 0.00 | 88 | 1011.7 |
| 20260505112820 | 43 | 290 | 1.7 | 7.0 | 0.00 | 0.39 | 0.00 | 88 | 1011.6 |
| 20260505112329 | 43 | 290 | 2.6 | 7.0 | 0.00 | 0.39 | 0.00 | 88 | 1011.4 |
| 20260505111820 | 44 | 290 | 2.6 | 7.8 | 0.00 | 0.39 | 0.00 | 88 | 1011.5 |
| 20260505111329 | 44 | 290 | 2.6 | 7.8 | 0.00 | 0.39 | 0.00 | 88 | 1011.4 |
| 20260505110837 | 44 | 290 | 2.6 | 7.8 | 0.00 | 0.39 | 0.00 | 87 | 1011.5 |
| 20260505110323 | 44 | 290 | 2.6 | 7.0 | 0.00 | 0.39 | 0.00 | 87 | 1011.5 |
| 20260505101836 | 44 | 290 | 2.6 | 7.0 | 0.00 | 0.39 | 0.00 | 88 | 1011.8 |
| 20260505101325 | 43 | 290 | 2.6 | 6.1 | 0.00 | 0.39 | 0.00 | 88 | 1011.8 |
| 20260505100854 | 43 | 290 | 0.9 | 4.3 | 0.00 | 0.39 | 0.00 | 88 | 1011.8 |
| 20260505100324 | 43 | 290 | 0.9 | 3.5 | 0.00 | 0.39 | 0.00 | 89 | 1011.8 |
| 20260505095835 | 43 | 290 | 0.0 | 2.6 | 0.00 | 0.39 | 0.00 | 88 | 1011.7 |
| 20260505095325 | 43 | 290 | 0.9 | 2.6 | 0.00 | 0.39 | 0.00 | 88 | 1011.8 |
| 20260505094830 | 43 | 290 | 0.9 | 2.6 | 0.00 | 0.39 | 0.00 | 88 | 1011.9 |
| 20260505094342 | 43 | 290 | 0.9 | 3.5 | 0.00 | 0.39 | 0.00 | 88 | 1011.9 |
| 20260505093830 | 43 | 290 | 1.7 | 4.3 | 0.00 | 0.39 | 0.00 | 89 | 1011.9 |
| 20260505093320 | 43 | 290 | 2.6 | 4.3 | 0.00 | 0.39 | 0.00 | 89 | 1011.8 |
| 20260505092831 | 43 | 290 | 0.9 | 2.6 | 0.00 | 0.39 | 0.00 | 88 | 1011.9 |
| 20260505092319 | 43 | 290 | 0.9 | 3.5 | 0.00 | 0.39 | 0.00 | 88 | 1011.9 |
| 20260505091828 | 43 | 290 | 1.7 | 3.5 | 0.00 | 0.39 | 0.00 | 88 | 1011.9 |
| 20260505091340 | 43 | 290 | 0.9 | 4.3 | 0.00 | 0.39 | 0.00 | 88 | 1012.0 |
| 20260505090828 | 43 | 290 | 1.7 | 6.1 | 0.00 | 0.39 | 0.00 | 88 | 1012.0 |
| 20260505090318 | 43 | 290 | 3.5 | 6.1 | 0.00 | 0.39 | 0.00 | 88 | 1011.9 |
| 20260505085829 | 43 | 290 | 2.6 | 7.0 | 0.00 | 0.39 | 0.00 | 88 | 1012.1 |
| 20260505085319 | 43 | 290 | 2.6 | 7.0 | 0.00 | 0.39 | 0.00 | 88 | 1012.0 |
| 20260505084856 | 43 | 290 | 2.6 | 7.0 | 0.00 | 0.39 | 0.00 | 88 | 1012.1 |
| 20260505084325 | 43 | 290 | 2.6 | 7.0 | 0.00 | 0.39 | 0.00 | 88 | 1012.1 |
| 20260505083812 | 43 | 289 | 2.6 | 7.8 | 0.00 | 0.39 | 0.00 | 88 | 1012.0 |
| 20260505083329 | 43 | 289 | 3.5 | 7.0 | 0.00 | 0.39 | 0.00 | 88 | 1012.2 |
| 20260505082819 | 43 | 289 | 2.6 | 6.1 | 0.00 | 0.39 | 0.00 | 88 | 1012.3 |
| 20260505082326 | 43 | 289 | 2.6 | 4.3 | 0.00 | 0.39 | 0.00 | 88 | 1012.4 |
| 20260505081838 | 43 | 288 | 1.7 | 3.5 | 0.00 | 0.39 | 0.00 | 88 | 1012.5 |
| 20260505081328 | 43 | 288 | 1.7 | 4.3 | 0.00 | 0.39 | 0.00 | 88 | 1012.5 |
| 20260505080840 | 43 | 288 | 0.9 | 4.3 | 0.00 | 0.39 | 0.00 | 88 | 1012.6 |
| 20260505080325 | 43 | 288 | 1.7 | 3.5 | 0.00 | 0.39 | 0.00 | 88 | 1012.6 |
| 20260505075816 | 43 | 288 | 0.0 | 2.6 | 0.00 | 0.39 | 0.00 | 89 | 1012.5 |
| 20260505075324 | 43 | 288 | 0.9 | 3.5 | 0.00 | 0.39 | 0.00 | 88 | 1012.6 |
| 20260505074834 | 43 | 288 | 0.9 | 3.5 | 0.00 | 0.39 | 0.00 | 88 | 1012.7 |
| 20260505074323 | 43 | 288 | 1.7 | 3.5 | 0.00 | 0.39 | 0.00 | 88 | 1012.7 |
| 20260505073834 | 43 | 288 | 0.9 | 3.5 | 0.00 | 0.39 | 0.00 | 88 | 1012.6 |
| 20260505073323 | 43 | 288 | 1.7 | 3.5 | 0.00 | 0.39 | 0.00 | 88 | 1012.3 |
| 20260505072833 | 43 | 288 | 1.7 | 3.5 | 0.00 | 0.39 | 0.00 | 88 | 1012.6 |
| 20260505072321 | 43 | 288 | 0.9 | 2.6 | 0.00 | 0.39 | 0.00 | 88 | 1012.8 |
| 20260505071854 | 43 | 288 | 0.0 | 3.5 | 0.00 | 0.39 | 0.00 | 88 | 1012.8 |
| 20260505071323 | 43 | 288 | 0.0 | 3.5 | 0.00 | 0.39 | 0.39 | 88 | 1012.7 |
| 20260505070828 | 43 | 288 | 0.9 | 3.5 | 0.00 | 0.39 | 0.39 | 88 | 1012.7 |
| 20260505070337 | 43 | 288 | 0.9 | 3.5 | 0.00 | 0.39 | 0.39 | 88 | 1012.4 |
| 20260505065841 | 43 | 288 | 0.9 | 3.5 | 0.00 | 0.39 | 0.39 | 88 | 1012.4 |
| 20260505065328 | 43 | 288 | 1.7 | 7.0 | 0.00 | 0.39 | 0.39 | 87 | 1012.2 |
| 20260505064818 | 44 | 288 | 0.9 | 7.0 | 0.00 | 0.39 | 0.39 | 88 | 1012.1 |
| 20260505064329 | 44 | 290 | 1.7 | 4.3 | 0.00 | 0.39 | 0.39 | 87 | 1012.2 |
| 20260505063821 | 44 | 290 | 0.9 | 6.1 | 0.00 | 0.39 | 0.39 | 88 | 1012.3 |
| 20260505063332 | 44 | 290 | 1.7 | 6.1 | 0.00 | 0.39 | 0.39 | 88 | 1012.2 |
| 20260505062820 | 44 | 290 | 1.7 | 7.0 | 0.00 | 0.39 | 0.39 | 88 | 1011.8 |
| 20260505062335 | 44 | 290 | 1.7 | 8.7 | 0.00 | 0.39 | 0.39 | 88 | 1011.5 |
| 20260505061826 | 44 | 290 | 4.3 | 8.7 | 0.00 | 0.39 | 0.39 | 88 | 1011.5 |
| 20260505061336 | 44 | 290 | 2.6 | 10.4 | 0.00 | 0.39 | 0.39 | 88 | 1011.5 |
| 20260505060826 | 44 | 288 | 3.5 | 10.4 | 0.00 | 0.39 | 0.39 | 88 | 1011.5 |
| 20260505060335 | 44 | 277 | 5.2 | 8.7 | 0.00 | 0.39 | 0.39 | 88 | 1011.7 |
| 20260505055824 | 44 | 276 | 2.6 | 8.7 | 0.00 | 0.39 | 0.39 | 88 | 1011.6 |
| 20260505055334 | 44 | 276 | 4.3 | 8.7 | 0.01 | 0.39 | 0.39 | 88 | 1011.6 |
| 20260505054844 | 44 | 275 | 3.5 | 7.8 | 0.01 | 0.39 | 0.39 | 88 | 1011.6 |
| 20260505054330 | 44 | 273 | 0.9 | 8.7 | 0.01 | 0.39 | 0.39 | 88 | 1011.7 |
| 20260505053820 | 44 | 272 | 3.5 | 10.4 | 0.01 | 0.39 | 0.39 | 88 | 1011.9 |
| 20260505053332 | 44 | 269 | 5.2 | 11.3 | 0.01 | 0.39 | 0.39 | 88 | 1011.9 |
| 20260505052843 | 44 | 306 | 5.2 | 10.4 | 0.01 | 0.39 | 0.39 | 88 | 1012.1 |
| 20260505052351 | 44 | 301 | 5.2 | 10.4 | 0.01 | 0.39 | 0.39 | 89 | 1012.0 |
| 20260505051820 | 44 | 320 | 5.2 | 11.3 | 0.01 | 0.39 | 0.39 | 89 | 1012.1 |
| 20260505051348 | 44 | 310 | 3.5 | 9.6 | 0.01 | 0.39 | 0.39 | 90 | 1011.9 |
| 20260505050818 | 44 | 322 | 3.5 | 9.6 | 0.01 | 0.39 | 0.39 | 90 | 1012.2 |
| 20260505050329 | 44 | 310 | 3.5 | 8.7 | 0.01 | 0.39 | 0.39 | 89 | 1012.3 |
| 20260505041320 | 45 | 196 | 3.5 | 7.8 | 0.01 | 0.38 | 0.38 | 89 | 1012.0 |
| 20260505040826 | 45 | 192 | 4.3 | 7.0 | 0.01 | 0.38 | 0.38 | 89 | 1011.7 |
| 20260505040316 | 45 | 189 | 2.6 | 6.1 | 0.01 | 0.38 | 0.38 | 90 | 1011.5 |
| 20260505035826 | 45 | 188 | 3.5 | 7.0 | 0.02 | 0.38 | 0.38 | 90 | 1011.7 |
| 20260505035317 | 45 | 187 | 3.5 | 6.1 | 0.02 | 0.38 | 0.38 | 90 | 1011.9 |
| 20260505034828 | 45 | 186 | 2.6 | 6.1 | 0.02 | 0.38 | 0.38 | 89 | 1012.0 |
| 20260505034319 | 45 | 186 | 3.5 | 8.7 | 0.01 | 0.37 | 0.37 | 90 | 1012.1 |
| 20260505033832 | 46 | 186 | 3.5 | 8.7 | 0.01 | 0.37 | 0.37 | 90 | 1012.1 |
| 20260505033321 | 46 | 184 | 3.5 | 5.2 | 0.02 | 0.37 | 0.37 | 90 | 1011.9 |
| 20260505032831 | 45 | 184 | 1.7 | 3.5 | 0.02 | 0.37 | 0.37 | 89 | 1011.6 |
| 20260505032342 | 45 | 184 | 1.7 | 4.3 | 0.02 | 0.37 | 0.37 | 89 | 1011.4 |
| 20260505031831 | 45 | 184 | 1.7 | 4.3 | 0.02 | 0.37 | 0.37 | 89 | 1011.5 |
| 20260505031323 | 46 | 184 | 1.7 | 5.2 | 0.02 | 0.37 | 0.37 | 90 | 1011.4 |
| 20260505030815 | 46 | 184 | 1.7 | 5.2 | 0.02 | 0.37 | 0.37 | 90 | 1011.3 |
| 20260505030354 | 46 | 184 | 1.7 | 7.8 | 0.02 | 0.37 | 0.37 | 90 | 1011.1 |
| 20260505025824 | 46 | 184 | 2.6 | 7.8 | 0.01 | 0.36 | 0.36 | 89 | 1011.3 |
| 20260505025314 | 45 | 184 | 0.9 | 2.6 | 0.01 | 0.36 | 0.36 | 89 | 1011.1 |
| 20260505024852 | 45 | 184 | 0.0 | 0.0 | 0.01 | 0.36 | 0.36 | 88 | 1011.0 |
| 20260505024343 | 45 | 184 | 0.0 | 2.6 | 0.01 | 0.36 | 0.36 | 88 | 1011.0 |
| 20260505023828 | 45 | 184 | 0.0 | 7.8 | 0.02 | 0.36 | 0.36 | 88 | 1011.4 |
| 20260505023340 | 45 | 184 | 3.5 | 7.8 | 0.03 | 0.35 | 0.35 | 88 | 1011.9 |
| 20260505022849 | 45 | 184 | 3.5 | 6.1 | 0.05 | 0.35 | 0.35 | 88 | 1011.9 |
| 20260505022340 | 45 | 184 | 2.6 | 8.7 | 0.07 | 0.35 | 0.35 | 89 | 1011.7 |
| 20260505021828 | 45 | 180 | 3.5 | 6.1 | 0.09 | 0.35 | 0.35 | 89 | 1011.3 |
| 20260505021318 | 45 | 180 | 2.6 | 5.2 | 0.11 | 0.35 | 0.35 | 89 | 1011.2 |
| 20260505020829 | 45 | 179 | 2.6 | 6.1 | 0.13 | 0.35 | 0.35 | 89 | 1011.2 |
| 20260505020320 | 45 | 176 | 2.6 | 7.0 | 0.13 | 0.35 | 0.35 | 89 | 1011.2 |
| 20260505015831 | 45 | 173 | 2.6 | 4.3 | 0.14 | 0.35 | 0.35 | 89 | 1011.4 |
| 20260505015322 | 45 | 173 | 1.7 | 6.1 | 0.14 | 0.35 | 0.35 | 89 | 1011.5 |
| 20260505014832 | 45 | 173 | 1.7 | 8.7 | 0.15 | 0.35 | 0.35 | 88 | 1011.4 |
| 20260505014322 | 46 | 159 | 1.7 | 7.8 | 0.18 | 0.35 | 0.35 | 89 | 1011.4 |
| 20260505013830 | 46 | 159 | 1.7 | 7.8 | 0.19 | 0.34 | 0.34 | 89 | 1011.8 |
| 20260505013320 | 47 | 157 | 2.6 | 7.0 | 0.20 | 0.32 | 0.32 | 89 | 1011.9 |
| 20260505012828 | 47 | 156 | 1.7 | 6.1 | 0.19 | 0.30 | 0.30 | 88 | 1012.4 |
| 20260505012319 | 47 | 155 | 2.6 | 6.1 | 0.17 | 0.28 | 0.28 | 87 | 1012.8 |
| 20260505011856 | 47 | 155 | 2.6 | 7.8 | 0.15 | 0.26 | 0.26 | 87 | 1012.9 |
| 20260505011325 | 47 | 155 | 3.5 | 12.2 | 0.12 | 0.23 | 0.23 | 86 | 1012.8 |
| 20260505010852 | 47 | 161 | 4.3 | 17.4 | 0.11 | 0.22 | 0.22 | 85 | 1012.4 |
| 20260505010343 | 47 | 157 | 7.8 | 17.4 | 0.10 | 0.21 | 0.21 | 84 | 1012.1 |
| 20260505005852 | 47 | 183 | 9.6 | 16.5 | 0.10 | 0.21 | 0.21 | 81 | 1011.5 |
| 20260505005320 | 47 | 183 | 10.4 | 16.5 | 0.09 | 0.20 | 0.20 | 81 | 1011.5 |
| 20260505004830 | 48 | 180 | 10.4 | 15.6 | 0.09 | 0.20 | 0.20 | 80 | 1011.2 |